Time,TemperatureF,DewpointF,PressureIn,WindDirection,WindDirectionDegrees,WindSpeedMPH,WindSpeedGustMPH,Humidity,HourlyPrecipIn,Conditions,Clouds,dailyrainin,SolarRadiationWatts/m^2,SoftwareType,DateUTC
2013-04-26 00:01:00,40.8,36.9,30.35,West,259,0.1,3.5,86,0.00,RA,OVC,0.00,0.0,WeatherDisplay:10.37,2013-04-26 04:01:00,
2013-04-26 00:06:00,40.8,36.9,30.35,West,259,1.9,4.0,86,0.00,RA,OVC,0.00,0.0,WeatherDisplay:10.37,2013-04-26 04:06:00,
2013-04-26 00:11:00,40.6,36.7,30.35,West,259,4.1,7.0,86,0.00,SCT,OVC,0.00,0.0,WeatherDisplay:10.37,2013-04-26 04:11:00,
2013-04-26 00:16:00,40.4,36.5,30.35,West,259,2.0,4.0,86,0.00,SCT,OVC,0.00,0.0,WeatherDisplay:10.37,2013-04-26 04:16:00,
2013-04-26 00:21:00,40.2,36.3,30.35,West,259,2.4,4.0,86,0.00,SCT,OVC,0.00,0.0,WeatherDisplay:10.37,2013-04-26 04:21:00,
2013-04-26 00:26:00,40.0,36.2,30.36,West,259,3.7,6.0,86,0.00,SCT,OVC,0.00,0.0,WeatherDisplay:10.37,2013-04-26 04:26:00,
2013-04-26 00:31:00,39.9,36.1,30.36,West,259,3.4,5.8,86,0.00,SCT,OVC,0.00,0.0,WeatherDisplay:10.37,2013-04-26 04:31:00,
2013-04-26 00:36:00,39.8,36.0,30.36,WSW,258,0.8,4.6,86,0.00,SCT,OVC,0.00,0.0,WeatherDisplay:10.37,2013-04-26 04:36:00,
2013-04-26 00:41:00,39.6,35.8,30.36,WSW,258,3.6,5.0,86,0.00,SCT,OVC,0.00,0.0,WeatherDisplay:10.37,2013-04-26 04:41:00,
2013-04-26 00:46:00,39.5,35.7,30.36,WSW,258,2.0,4.6,86,0.00,SCT,OVC,0.00,0.0,WeatherDisplay:10.37,2013-04-26 04:46:00,
2013-04-26 00:51:00,39.4,35.6,30.36,WSW,258,0.0,1.2,86,0.00,SCT,OVC,0.00,0.0,WeatherDisplay:10.37,2013-04-26 04:51:00,
2013-04-26 00:56:00,39.3,35.5,30.36,WSW,258,0.0,0.0,86,0.00,SCT,OVC,0.00,0.0,WeatherDisplay:10.37,2013-04-26 04:56:00,
2013-04-26 01:01:00,39.1,35.3,30.36,WSW,258,0.0,1.2,86,0.00,SCT,OVC,0.00,0.0,WeatherDisplay:10.37,2013-04-26 05:01:00,
2013-04-26 01:06:00,39.0,35.2,30.36,WSW,258,1.0,3.5,86,0.00,SCT,OVC,0.00,0.0,WeatherDisplay:10.37,2013-04-26 05:06:00,
2013-04-26 01:11:00,38.8,35.0,30.36,WSW,258,0.2,2.3,86,0.00,SCT,OVC,0.00,0.0,WeatherDisplay:10.37,2013-04-26 05:11:00,
2013-04-26 01:16:00,38.6,34.8,30.36,WSW,258,0.0,0.0,86,0.00,SCT,OVC,0.00,0.0,WeatherDisplay:10.37,2013-04-26 05:16:00,
2013-04-26 01:21:00,38.5,34.7,30.37,WSW,258,0.2,1.2,86,0.00,SCT,OVC,0.00,0.0,WeatherDisplay:10.37,2013-04-26 05:21:00,
2013-04-26 01:26:00,38.3,34.5,30.37,WSW,258,0.3,2.3,86,0.00,SCT,OVC,0.00,0.0,WeatherDisplay:10.37,2013-04-26 05:26:00,
2013-04-26 01:31:00,38.2,34.7,30.36,WSW,258,1.2,3.5,87,0.00,SCT,OVC,0.00,0.0,WeatherDisplay:10.37,2013-04-26 05:31:00,
2013-04-26 01:36:00,38.1,34.6,30.37,WSW,258,0.7,2.3,87,0.00,SCT,OVC,0.00,0.0,WeatherDisplay:10.37,2013-04-26 05:36:00,
2013-04-26 01:41:00,38.0,34.5,30.37,WSW,258,0.0,3.5,87,0.00,SCT,OVC,0.00,0.0,WeatherDisplay:10.37,2013-04-26 05:41:00,
2013-04-26 01:46:00,38.0,34.5,30.37,WSW,258,2.5,4.0,87,0.00,SCT,OVC,0.00,0.0,WeatherDisplay:10.37,2013-04-26 05:46:00,
2013-04-26 01:51:00,38.0,34.5,30.37,WSW,258,0.2,3.5,87,0.00,SCT,OVC,0.00,0.0,WeatherDisplay:10.37,2013-04-26 05:51:00,
2013-04-26 01:56:00,38.0,34.5,30.37,WSW,258,0.9,3.5,87,0.00,SCT,OVC,0.00,0.0,WeatherDisplay:10.37,2013-04-26 05:56:00,
2013-04-26 02:01:00,38.1,34.9,30.37,WSW,258,1.8,3.5,88,0.00,SCT,OVC,0.00,0.0,WeatherDisplay:10.37,2013-04-26 06:01:00,
2013-04-26 02:06:00,38.2,35.0,30.37,WSW,258,2.1,3.5,88,0.00,SCT,OVC,0.00,0.0,WeatherDisplay:10.37,2013-04-26 06:06:00,
2013-04-26 02:11:00,38.3,35.1,30.37,WSW,258,2.5,4.0,88,0.00,SCT,OVC,0.00,0.0,WeatherDisplay:10.37,2013-04-26 06:11:00,
2013-04-26 02:16:00,38.4,35.2,30.37,WSW,258,2.1,4.0,88,0.00,SCT,OVC,0.00,0.0,WeatherDisplay:10.37,2013-04-26 06:16:00,
2013-04-26 02:21:00,38.4,35.2,30.38,WSW,258,1.9,5.0,88,0.00,SCT,OVC,0.00,0.0,WeatherDisplay:10.37,2013-04-26 06:21:00,
2013-04-26 02:26:00,38.4,35.2,30.37,WSW,258,2.8,4.0,88,0.00,SCT,OVC,0.00,0.0,WeatherDisplay:10.37,2013-04-26 06:26:00,
2013-04-26 02:32:00,38.4,35.2,30.37,WSW,258,1.4,4.6,88,0.00,SCT,OVC,0.00,0.0,WeatherDisplay:10.37,2013-04-26 06:32:00,
2013-04-26 02:37:00,38.3,35.1,30.38,WSW,258,3.1,4.0,88,0.00,SCT,OVC,0.00,0.0,WeatherDisplay:10.37,2013-04-26 06:37:00,
2013-04-26 02:42:00,38.2,35.0,30.37,WSW,255,3.7,6.0,88,0.00,SCT,OVC,0.00,0.0,WeatherDisplay:10.37,2013-04-26 06:42:00,
2013-04-26 02:47:00,38.2,35.0,30.38,WSW,254,3.5,6.9,88,0.00,SCT,OVC,0.00,0.0,WeatherDisplay:10.37,2013-04-26 06:47:00,
2013-04-26 02:52:00,38.1,34.9,30.38,WSW,253,2.9,5.0,88,0.00,SCT,OVC,0.00,0.0,WeatherDisplay:10.37,2013-04-26 06:52:00,
2013-04-26 02:57:00,38.0,34.8,30.38,WSW,253,2.5,4.0,88,0.00,SCT,OVC,0.00,0.0,WeatherDisplay:10.37,2013-04-26 06:57:00,
2013-04-26 03:02:00,38.0,34.8,30.38,WSW,253,2.8,4.6,88,0.00,SCT,OVC,0.00,0.0,WeatherDisplay:10.37,2013-04-26 07:02:00,
2013-04-26 03:07:00,37.9,34.7,30.38,WSW,253,2.3,3.5,88,0.00,SCT,OVC,0.00,0.0,WeatherDisplay:10.37,2013-04-26 07:07:00,
2013-04-26 03:12:00,37.8,34.6,30.38,WSW,253,0.2,2.3,88,0.00,SCT,OVC,0.00,0.0,WeatherDisplay:10.37,2013-04-26 07:12:00,
2013-04-26 03:17:00,37.7,34.5,30.38,WSW,253,0.0,3.5,88,0.00,SCT,OVC,0.00,0.0,WeatherDisplay:10.37,2013-04-26 07:17:00,
2013-04-26 03:22:00,37.6,34.4,30.38,WSW,253,1.2,3.5,88,0.00,SCT,OVC,0.00,0.0,WeatherDisplay:10.37,2013-04-26 07:22:00,
2013-04-26 03:28:00,37.4,34.2,30.38,WSW,253,0.3,2.0,88,0.00,SCT,OVC,0.00,0.0,WeatherDisplay:10.37,2013-04-26 07:28:00,
2013-04-26 03:33:00,37.3,34.1,30.38,WSW,253,0.6,3.5,88,0.00,SCT,OVC,0.00,0.0,WeatherDisplay:10.37,2013-04-26 07:33:00,
2013-04-26 03:38:00,37.1,33.9,30.38,WSW,253,0.3,2.3,88,0.00,SCT,OVC,0.00,0.0,WeatherDisplay:10.37,2013-04-26 07:38:00,
2013-04-26 03:43:00,37.0,33.8,30.39,WSW,253,0.6,4.0,88,0.00,SCT,OVC,0.00,0.0,WeatherDisplay:10.37,2013-04-26 07:43:00,
2013-04-26 03:48:00,36.8,33.6,30.39,WSW,253,1.7,3.5,88,0.00,SCT,OVC,0.00,0.0,WeatherDisplay:10.37,2013-04-26 07:48:00,
2013-04-26 03:53:00,36.8,33.6,30.39,WSW,253,1.2,3.0,88,0.00,SCT,OVC,0.00,0.0,WeatherDisplay:10.37,2013-04-26 07:53:00,
2013-04-26 03:58:00,36.7,33.5,30.39,WSW,253,0.4,2.3,88,0.00,SCT,OVC,0.00,0.0,WeatherDisplay:10.37,2013-04-26 07:58:00,
2013-04-26 04:03:00,36.6,33.4,30.39,WSW,253,0.0,2.3,88,0.00,FEW,OVC,0.00,0.0,WeatherDisplay:10.37,2013-04-26 08:03:00,
2013-04-26 04:08:00,36.6,33.4,30.39,WSW,253,1.2,3.0,88,0.00,FEW,OVC,0.00,0.0,WeatherDisplay:10.37,2013-04-26 08:08:00,
2013-04-26 04:13:00,36.5,33.3,30.39,WSW,253,0.2,3.5,88,0.00,FEW,OVC,0.00,0.0,WeatherDisplay:10.37,2013-04-26 08:13:00,
2013-04-26 04:18:00,36.5,33.3,30.39,WSW,253,0.4,2.3,88,0.00,FEW,OVC,0.00,0.0,WeatherDisplay:10.37,2013-04-26 08:18:00,
2013-04-26 04:23:00,36.4,33.2,30.40,WSW,253,0.6,2.0,88,0.00,FEW,OVC,0.00,0.0,WeatherDisplay:10.37,2013-04-26 08:23:00,
2013-04-26 04:28:00,36.3,33.1,30.40,WSW,253,0.1,1.0,88,0.00,FEW,OVC,0.00,0.0,WeatherDisplay:10.37,2013-04-26 08:28:00,
2013-04-26 04:33:00,36.2,33.3,30.40,WSW,253,0.0,1.2,89,0.00,FEW,OVC,0.00,0.0,WeatherDisplay:10.37,2013-04-26 08:33:00,
2013-04-26 04:38:00,36.1,33.2,30.41,WSW,253,0.0,0.0,89,0.00,FEW,OVC,0.00,0.0,WeatherDisplay:10.37,2013-04-26 08:38:00,
2013-04-26 04:43:00,36.1,33.2,30.41,WSW,253,0.4,2.3,89,0.00,FEW,OVC,0.00,0.0,WeatherDisplay:10.37,2013-04-26 08:43:00,
2013-04-26 04:48:00,36.0,32.8,30.41,WSW,253,1.3,2.3,88,0.00,FEW,OVC,0.00,0.0,WeatherDisplay:10.37,2013-04-26 08:48:00,
2013-04-26 04:53:00,35.9,32.7,30.41,WSW,253,0.8,3.5,88,0.00,FEW,OVC,0.00,0.0,WeatherDisplay:10.37,2013-04-26 08:53:00,
2013-04-26 04:58:00,35.8,32.6,30.41,WSW,253,0.0,1.2,88,0.00,FEW,OVC,0.00,0.0,WeatherDisplay:10.37,2013-04-26 08:58:00,
2013-04-26 05:03:00,35.7,32.8,30.42,WSW,253,0.0,2.3,89,0.00,FEW,OVC,0.00,0.0,WeatherDisplay:10.37,2013-04-26 09:03:00,
2013-04-26 05:08:00,35.6,32.7,30.42,WSW,253,0.6,3.5,89,0.00,FEW,OVC,0.00,0.0,WeatherDisplay:10.37,2013-04-26 09:08:00,
2013-04-26 05:13:00,35.5,32.6,30.42,WSW,253,0.4,1.2,89,0.00,FEW,OVC,0.00,0.0,WeatherDisplay:10.37,2013-04-26 09:13:00,
2013-04-26 05:18:00,35.4,32.5,30.42,WSW,253,0.0,1.0,89,0.00,FEW,OVC,0.00,0.0,WeatherDisplay:10.37,2013-04-26 09:18:00,
2013-04-26 05:23:00,35.3,32.1,30.42,WSW,253,0.0,0.0,88,0.00,CLR,OVC,0.00,0.0,WeatherDisplay:10.37,2013-04-26 09:23:00,
2013-04-26 05:28:00,35.2,32.0,30.42,WSW,253,0.1,1.0,88,0.00,CLR,OVC,0.00,0.0,WeatherDisplay:10.37,2013-04-26 09:28:00,
2013-04-26 05:33:00,35.1,32.2,30.42,WSW,253,0.0,0.0,89,0.00,CLR,OVC,0.00,0.0,WeatherDisplay:10.37,2013-04-26 09:33:00,
2013-04-26 05:38:00,35.0,32.1,30.42,WSW,253,0.0,0.0,89,0.00,CLR,OVC,0.00,0.0,WeatherDisplay:10.37,2013-04-26 09:38:00,
2013-04-26 05:43:00,34.8,31.9,30.43,WSW,253,0.0,1.2,89,0.00,CLR,OVC,0.00,0.0,WeatherDisplay:10.37,2013-04-26 09:43:00,
2013-04-26 05:48:00,34.7,31.8,30.43,WSW,253,0.1,1.2,89,0.00,CLR,OVC,0.00,0.0,WeatherDisplay:10.37,2013-04-26 09:48:00,
2013-04-26 05:53:00,34.7,31.8,30.43,WSW,253,0.2,2.3,89,0.00,CLR,OVC,0.00,0.0,WeatherDisplay:10.37,2013-04-26 09:53:00,
2013-04-26 05:58:00,34.7,31.8,30.43,WSW,253,0.9,2.3,89,0.00,CLR,OVC,0.00,0.0,WeatherDisplay:10.37,2013-04-26 09:58:00,
2013-04-26 06:03:00,34.7,31.8,30.43,WSW,253,0.2,2.3,89,0.00,CLR,OVC,0.00,0.0,WeatherDisplay:10.37,2013-04-26 10:03:00,
2013-04-26 06:08:00,34.8,31.9,30.43,WSW,253,0.8,2.3,89,0.00,CLR,OVC,0.00,0.0,WeatherDisplay:10.37,2013-04-26 10:08:00,
2013-04-26 06:13:00,34.8,31.9,30.43,WSW,253,0.0,2.3,89,0.00,CLR,OVC,0.00,0.0,WeatherDisplay:10.37,2013-04-26 10:13:00,
2013-04-26 06:18:00,34.9,32.0,30.43,WSW,253,0.2,2.3,89,0.00,CLR,OVC,0.00,5.0,WeatherDisplay:10.37,2013-04-26 10:18:00,
2013-04-26 06:23:00,34.9,32.0,30.44,WSW,253,0.1,1.2,89,0.00,CLR,OVC,0.00,9.0,WeatherDisplay:10.37,2013-04-26 10:23:00,
2013-04-26 06:28:00,35.0,32.1,30.43,WSW,253,0.0,0.0,89,0.00,CLR,OVC,0.00,12.0,WeatherDisplay:10.37,2013-04-26 10:28:00,
2013-04-26 06:33:00,35.0,32.1,30.43,WSW,253,0.0,0.0,89,0.00,CLR,OVC,0.00,16.0,WeatherDisplay:10.37,2013-04-26 10:33:00,
2013-04-26 06:38:00,34.9,32.0,30.44,WSW,253,0.0,0.0,89,0.00,CLR,OVC,0.00,23.0,WeatherDisplay:10.37,2013-04-26 10:38:00,
2013-04-26 06:43:00,34.9,32.0,30.44,WSW,253,0.0,0.0,89,0.00,CLR,OVC,0.00,26.0,WeatherDisplay:10.37,2013-04-26 10:43:00,
2013-04-26 06:48:00,34.9,32.0,30.44,WSW,253,0.0,0.0,89,0.00,CLR,OVC,0.00,33.0,WeatherDisplay:10.37,2013-04-26 10:48:00,
2013-04-26 06:53:00,34.9,32.0,30.44,WSW,253,0.0,1.2,89,0.00,CLR,OVC,0.00,40.0,WeatherDisplay:10.37,2013-04-26 10:53:00,
2013-04-26 06:58:00,35.0,32.4,30.44,WSW,253,0.1,1.2,90,0.00,CLR,OVC,0.00,49.0,WeatherDisplay:10.37,2013-04-26 10:58:00,
2013-04-26 07:03:00,35.1,32.5,30.45,WSW,253,0.3,3.5,90,0.00,CLR,OVC,0.00,51.0,WeatherDisplay:10.37,2013-04-26 11:03:00,
2013-04-26 07:08:00,35.2,32.6,30.45,WSW,253,0.0,0.0,90,0.00,CLR,OVC,0.00,74.0,WeatherDisplay:10.37,2013-04-26 11:08:00,
2013-04-26 07:13:00,35.3,32.7,30.45,WSW,253,1.1,2.3,90,0.00,CLR,OVC,0.00,95.0,WeatherDisplay:10.37,2013-04-26 11:13:00,
2013-04-26 07:18:00,35.6,33.0,30.45,WSW,253,0.5,2.3,90,0.00,CLR,OVC,0.00,113.0,WeatherDisplay:10.37,2013-04-26 11:18:00,
2013-04-26 07:23:00,35.9,33.3,30.45,WSW,253,0.1,1.2,90,0.00,CLR,OVC,0.00,123.0,WeatherDisplay:10.37,2013-04-26 11:23:00,
2013-04-26 07:28:00,36.2,33.5,30.45,WSW,253,0.5,2.3,90,0.00,CLR,OVC,0.00,137.0,WeatherDisplay:10.37,2013-04-26 11:28:00,
2013-04-26 07:33:00,36.6,33.9,30.46,WSW,253,0.5,3.5,90,0.00,CLR,OVC,0.00,155.0,WeatherDisplay:10.37,2013-04-26 11:33:00,
2013-04-26 07:38:00,37.0,34.3,30.46,WSW,253,1.0,3.5,90,0.00,CLR,OVC,0.00,171.0,WeatherDisplay:10.37,2013-04-26 11:38:00,
2013-04-26 07:43:00,37.3,34.9,30.46,WSW,253,0.3,2.3,91,0.00,CLR,OVC,0.00,179.0,WeatherDisplay:10.37,2013-04-26 11:43:00,
2013-04-26 07:48:00,37.8,35.4,30.46,WSW,253,0.0,3.5,91,0.00,CLR,OVC,0.00,197.0,WeatherDisplay:10.37,2013-04-26 11:48:00,
2013-04-26 07:53:00,38.2,35.8,30.47,WSW,253,1.8,4.0,91,0.00,CLR,OVC,0.00,213.0,WeatherDisplay:10.37,2013-04-26 11:53:00,
2013-04-26 07:58:00,38.7,36.3,30.47,WSW,253,0.7,4.6,91,0.00,CLR,OVC,0.00,230.0,WeatherDisplay:10.37,2013-04-26 11:58:00,
2013-04-26 08:03:00,39.1,36.7,30.47,WSW,253,0.8,3.5,91,0.00,CLR,OVC,0.00,244.0,WeatherDisplay:10.37,2013-04-26 12:03:00,
2013-04-26 08:08:00,39.5,37.1,30.47,WSW,253,2.3,4.0,91,0.00,CLR,OVC,0.00,258.0,WeatherDisplay:10.37,2013-04-26 12:08:00,
2013-04-26 08:13:00,40.0,37.3,30.47,WSW,253,0.5,3.5,90,0.00,CLR,OVC,0.00,276.0,WeatherDisplay:10.37,2013-04-26 12:13:00,
2013-04-26 08:18:00,40.4,38.0,30.47,WSW,253,3.0,6.0,91,0.00,CLR,OVC,0.00,292.0,WeatherDisplay:10.37,2013-04-26 12:18:00,
2013-04-26 08:23:00,40.7,38.0,30.47,WSW,253,2.1,4.6,90,0.00,CLR,OVC,0.00,304.0,WeatherDisplay:10.37,2013-04-26 12:23:00,
2013-04-26 08:28:00,40.9,38.2,30.47,West,266,3.3,5.8,90,0.00,CLR,OVC,0.00,322.0,WeatherDisplay:10.37,2013-04-26 12:28:00,
2013-04-26 08:33:00,41.2,38.2,30.47,West,266,3.8,6.0,89,0.00,CLR,OVC,0.00,334.0,WeatherDisplay:10.37,2013-04-26 12:33:00,
2013-04-26 08:38:00,41.5,38.2,30.48,West,266,0.3,5.8,88,0.00,CLR,OVC,0.00,350.0,WeatherDisplay:10.37,2013-04-26 12:38:00,
2013-04-26 08:43:00,41.9,38.6,30.48,West,264,3.3,6.9,88,0.00,CLR,OVC,0.00,359.0,WeatherDisplay:10.37,2013-04-26 12:43:00,
2013-04-26 08:48:00,42.2,38.6,30.48,West,264,3.0,5.8,87,0.00,CLR,OVC,0.00,380.0,WeatherDisplay:10.37,2013-04-26 12:48:00,
2013-04-26 08:53:00,42.7,38.5,30.48,West,263,4.5,8.1,85,0.00,CLR,OVC,0.00,403.0,WeatherDisplay:10.37,2013-04-26 12:53:00,
2013-04-26 08:58:00,42.9,38.1,30.48,WSW,255,4.7,8.1,83,0.00,CLR,OVC,0.00,431.0,WeatherDisplay:10.37,2013-04-26 12:58:00,
2013-04-26 09:03:00,43.3,38.2,30.48,WSW,253,3.0,6.9,82,0.00,SCT,OVC,0.00,452.0,WeatherDisplay:10.37,2013-04-26 13:03:00,
2013-04-26 09:08:00,43.8,38.3,30.48,WSW,249,7.0,12.0,81,0.00,SCT,OVC,0.00,483.0,WeatherDisplay:10.37,2013-04-26 13:08:00,
2013-04-26 09:14:00,44.1,37.7,30.48,WSW,256,2.9,6.0,78,0.00,SCT,OVC,0.00,494.0,WeatherDisplay:10.37,2013-04-26 13:14:00,
2013-04-26 09:19:00,44.3,36.9,30.48,WSW,247,4.5,8.0,75,0.00,SCT,OVC,0.00,513.0,WeatherDisplay:10.37,2013-04-26 13:19:00,
2013-04-26 09:24:00,44.5,35.7,30.49,WSW,252,3.6,6.9,71,0.00,SCT,OVC,0.00,531.0,WeatherDisplay:10.37,2013-04-26 13:24:00,
2013-04-26 09:29:00,44.9,35.7,30.48,WNW,294,5.2,9.2,70,0.00,SCT,OVC,0.00,554.0,WeatherDisplay:10.37,2013-04-26 13:29:00,
2013-04-26 09:34:00,45.1,34.4,30.48,WSW,258,4.8,8.1,66,0.00,SCT,OVC,0.00,492.0,WeatherDisplay:10.37,2013-04-26 13:34:00,
2013-04-26 09:39:00,45.2,34.5,30.48,West,263,4.2,7.0,66,0.00,SCT,OVC,0.00,592.0,WeatherDisplay:10.37,2013-04-26 13:39:00,
2013-04-26 09:44:00,45.4,34.7,30.49,WSW,252,4.5,6.9,66,0.00,SCT,OVC,0.00,638.0,WeatherDisplay:10.37,2013-04-26 13:44:00,
2013-04-26 09:49:00,45.7,35.4,30.49,WSW,252,3.3,8.1,67,0.00,SCT,OVC,0.00,158.0,WeatherDisplay:10.37,2013-04-26 13:49:00,
2013-04-26 09:54:00,45.6,34.5,30.49,WSW,252,3.1,5.0,65,0.00,SCT,OVC,0.00,686.0,WeatherDisplay:10.37,2013-04-26 13:54:00,
2013-04-26 09:59:00,45.9,34.0,30.49,WSW,247,2.4,6.9,63,0.00,SCT,OVC,0.00,715.0,WeatherDisplay:10.37,2013-04-26 13:59:00,
2013-04-26 10:04:00,46.1,34.2,30.49,WSW,249,3.7,11.5,63,0.00,SCT,OVC,0.00,712.0,WeatherDisplay:10.37,2013-04-26 14:04:00,
2013-04-26 10:09:00,46.4,33.7,30.49,WSW,257,2.1,6.0,61,0.00,SCT,OVC,0.00,640.0,WeatherDisplay:10.37,2013-04-26 14:09:00,
2013-04-26 10:14:00,46.8,34.0,30.49,WSW,256,4.7,7.0,61,0.00,SCT,OVC,0.00,737.0,WeatherDisplay:10.37,2013-04-26 14:14:00,
2013-04-26 10:19:00,47.2,34.4,30.49,WSW,257,4.4,7.0,61,0.00,SCT,OVC,0.00,735.0,WeatherDisplay:10.37,2013-04-26 14:19:00,
2013-04-26 10:24:00,47.4,34.2,30.49,WNW,294,7.0,11.0,60,0.00,SCT,OVC,0.00,181.0,WeatherDisplay:10.37,2013-04-26 14:24:00,
2013-04-26 10:29:00,47.2,32.3,30.49,WNW,298,0.2,3.5,56,0.00,SCT,OVC,0.00,782.0,WeatherDisplay:10.37,2013-04-26 14:29:00,
2013-04-26 10:34:00,47.5,33.4,30.50,WNW,284,7.2,10.4,58,0.00,SCT,OVC,0.00,821.0,WeatherDisplay:10.37,2013-04-26 14:34:00,
2013-04-26 10:39:00,47.6,33.1,30.50,WSW,253,3.7,10.4,57,0.00,SCT,OVC,0.00,171.0,WeatherDisplay:10.37,2013-04-26 14:39:00,
2013-04-26 10:44:00,47.4,32.5,30.50,West,265,5.8,8.1,56,0.00,SCT,OVC,0.00,190.0,WeatherDisplay:10.37,2013-04-26 14:44:00,
2013-04-26 10:49:00,47.4,32.9,30.50,WSW,253,0.0,1.2,57,0.00,SCT,OVC,0.00,856.0,WeatherDisplay:10.37,2013-04-26 14:49:00,
2013-04-26 10:54:00,47.8,33.3,30.50,WNW,286,4.3,7.0,57,0.00,SCT,OVC,0.00,199.0,WeatherDisplay:10.37,2013-04-26 14:54:00,
2013-04-26 10:59:00,47.8,32.4,30.50,WNW,292,3.0,9.2,55,0.00,SCT,OVC,0.00,281.0,WeatherDisplay:10.37,2013-04-26 14:59:00,
2013-04-26 11:04:00,47.6,31.3,30.50,NW,318,3.5,6.0,53,0.00,SCT,OVC,0.00,874.0,WeatherDisplay:10.37,2013-04-26 15:04:00,
2013-04-26 11:09:00,47.7,32.8,30.50,WNW,295,3.0,11.5,56,0.00,SCT,OVC,0.00,193.0,WeatherDisplay:10.37,2013-04-26 15:09:00,
2013-04-26 11:14:00,47.5,31.7,30.50,WNW,292,1.4,6.9,54,0.00,SCT,OVC,0.00,246.0,WeatherDisplay:10.37,2013-04-26 15:14:00,
2013-04-26 11:19:00,47.2,30.9,30.50,WNW,294,0.9,8.1,53,0.00,SCT,OVC,0.00,246.0,WeatherDisplay:10.37,2013-04-26 15:19:00,
2013-04-26 11:24:00,47.8,32.9,30.50,WNW,285,4.6,7.0,56,0.00,SCT,OVC,0.00,396.0,WeatherDisplay:10.37,2013-04-26 15:24:00,
2013-04-26 11:29:00,48.1,32.7,30.50,WSW,256,2.6,9.2,55,0.00,SCT,OVC,0.00,925.0,WeatherDisplay:10.37,2013-04-26 15:29:00,
2013-04-26 11:34:00,48.6,32.7,30.50,WSW,254,4.8,11.5,54,0.00,SCT,OVC,0.00,911.0,WeatherDisplay:10.37,2013-04-26 15:34:00,
2013-04-26 11:39:00,49.4,32.0,30.50,WSW,251,6.3,8.1,51,0.00,SCT,OVC,0.00,896.0,WeatherDisplay:10.37,2013-04-26 15:39:00,
2013-04-26 11:44:00,49.7,31.3,30.50,West,261,3.2,6.0,49,0.00,SCT,OVC,0.00,976.0,WeatherDisplay:10.37,2013-04-26 15:44:00,
2013-04-26 11:49:00,49.8,31.4,30.50,WNW,290,5.4,7.0,49,0.00,SCT,OVC,0.00,353.0,WeatherDisplay:10.37,2013-04-26 15:49:00,
2013-04-26 11:54:00,49.6,31.2,30.50,WSW,246,6.0,11.5,49,0.00,SCT,OVC,0.00,1005.0,WeatherDisplay:10.37,2013-04-26 15:54:00,
2013-04-26 11:59:00,49.8,32.4,30.50,WSW,250,5.0,11.5,51,0.00,SCT,OVC,0.00,1039.0,WeatherDisplay:10.37,2013-04-26 15:59:00,
2013-04-26 12:04:00,50.2,33.7,30.50,WSW,258,1.7,6.0,53,0.00,SCT,OVC,0.00,380.0,WeatherDisplay:10.37,2013-04-26 16:04:00,
2013-04-26 12:09:00,50.5,32.0,30.50,West,270,3.9,9.2,49,0.00,SCT,OVC,0.00,526.0,WeatherDisplay:10.37,2013-04-26 16:09:00,
2013-04-26 12:14:00,50.6,32.1,30.50,WNW,290,6.6,10.4,49,0.00,SCT,OVC,0.00,983.0,WeatherDisplay:10.37,2013-04-26 16:14:00,
2013-04-26 12:19:00,51.1,32.6,30.51,WSW,248,6.3,9.2,49,0.00,SCT,OVC,0.00,977.0,WeatherDisplay:10.37,2013-04-26 16:19:00,
2013-04-26 12:24:00,51.2,32.2,30.51,WSW,257,8.2,11.5,48,0.00,SCT,OVC,0.00,960.0,WeatherDisplay:10.37,2013-04-26 16:24:00,
2013-04-26 12:30:00,51.3,32.8,30.51,WSW,243,4.5,9.2,49,0.00,SCT,OVC,0.00,643.0,WeatherDisplay:10.37,2013-04-26 16:30:00,
2013-04-26 12:35:00,51.2,31.6,30.51,West,265,6.1,10.4,47,0.00,SCT,OVC,0.00,942.0,WeatherDisplay:10.37,2013-04-26 16:35:00,
2013-04-26 12:40:00,51.0,32.5,30.50,SW,227,3.5,11.0,49,0.00,SCT,OVC,0.00,912.0,WeatherDisplay:10.37,2013-04-26 16:40:00,
2013-04-26 12:45:00,51.3,32.3,30.50,West,272,5.7,9.2,48,0.00,SCT,OVC,0.00,905.0,WeatherDisplay:10.37,2013-04-26 16:45:00,
2013-04-26 12:50:00,51.3,31.7,30.50,WSW,257,6.3,10.0,47,0.00,SCT,OVC,0.00,907.0,WeatherDisplay:10.37,2013-04-26 16:50:00,
2013-04-26 12:55:00,51.1,30.5,30.50,WNW,293,9.5,12.0,45,0.00,SCT,OVC,0.00,902.0,WeatherDisplay:10.37,2013-04-26 16:55:00,
2013-04-26 13:00:00,50.7,30.1,30.50,West,261,6.9,11.5,45,0.00,SCT,OVC,0.00,900.0,WeatherDisplay:10.37,2013-04-26 17:00:00,
2013-04-26 13:05:00,50.6,30.6,30.50,NW,315,5.2,8.1,46,0.00,SCT,OVC,0.00,712.0,WeatherDisplay:10.37,2013-04-26 17:05:00,
2013-04-26 13:10:00,50.5,29.4,30.50,West,277,2.9,6.9,44,0.00,SCT,OVC,0.00,751.0,WeatherDisplay:10.37,2013-04-26 17:10:00,
2013-04-26 13:15:00,50.4,29.8,30.50,WNW,300,4.6,9.2,45,0.00,SCT,OVC,0.00,587.0,WeatherDisplay:10.37,2013-04-26 17:15:00,
2013-04-26 13:20:00,50.7,31.2,30.50,West,268,3.9,9.2,47,0.00,SCT,OVC,0.00,584.0,WeatherDisplay:10.37,2013-04-26 17:20:00,
2013-04-26 13:25:00,50.8,30.2,30.50,WSW,254,6.9,11.5,45,0.00,SCT,OVC,0.00,589.0,WeatherDisplay:10.37,2013-04-26 17:25:00,
2013-04-26 13:30:00,50.7,30.1,30.50,West,271,3.8,8.1,45,0.00,SCT,OVC,0.00,657.0,WeatherDisplay:10.37,2013-04-26 17:30:00,
2013-04-26 13:35:00,50.9,30.3,30.50,WSW,256,5.7,11.0,45,0.00,SCT,OVC,0.00,397.0,WeatherDisplay:10.37,2013-04-26 17:35:00,
2013-04-26 13:40:00,51.2,30.6,30.50,WSW,255,5.3,10.4,45,0.00,SCT,OVC,0.00,394.0,WeatherDisplay:10.37,2013-04-26 17:40:00,
2013-04-26 13:45:00,51.6,31.5,30.50,WSW,255,6.4,9.2,46,0.00,SCT,OVC,0.00,385.0,WeatherDisplay:10.37,2013-04-26 17:45:00,
2013-04-26 13:50:00,51.8,30.6,30.49,WSW,252,4.9,8.1,44,0.00,SCT,OVC,0.00,902.0,WeatherDisplay:10.37,2013-04-26 17:50:00,
2013-04-26 13:55:00,52.2,30.9,30.49,WSW,251,6.8,11.5,44,0.00,SCT,OVC,0.00,895.0,WeatherDisplay:10.37,2013-04-26 17:55:00,
2013-04-26 14:00:00,52.4,31.7,30.49,West,259,5.0,9.2,45,0.00,SCT,OVC,0.00,893.0,WeatherDisplay:10.37,2013-04-26 18:00:00,
2013-04-26 14:05:00,52.4,31.1,30.49,WSW,250,9.2,13.0,44,0.00,SCT,OVC,0.00,891.0,WeatherDisplay:10.37,2013-04-26 18:05:00,